This is the latest recevied weather packets stored in our database for station/object IK8SUT-10. If no packets are shown the sender has not sent any weather packets the latest 10 day(s).
| Time | Temp. | Humidity | Pressure | Rain* | Wind** | Luminosity | Snow |
|---|---|---|---|---|---|---|---|
| 1777668368 | 22.78° C | 50% | 1024.4 hPa | - | - | - | - |
| 1777667467 | 22.78° C | 50% | 1024.2 hPa | - | - | - | - |
| 1777666566 | 22.78° C | 50% | 1024.2 hPa | - | - | - | - |
| 1777665665 | 22.78° C | 49% | 1023.9 hPa | - | - | - | - |
| 1777664764 | 22.78° C | 47% | 1023.7 hPa | - | - | - | - |
| 1777663863 | 22.78° C | 52% | 1023.7 hPa | - | - | - | - |
| 1777662962 | 22.78° C | 52% | 1023.5 hPa | - | - | - | - |
| 1777662062 | 22.78° C | 52% | 1023.5 hPa | - | - | - | - |
| 1777661161 | 22.78° C | 52% | 1023.2 hPa | - | - | - | - |
| 1777660260 | 23.33° C | 51% | 1022.9 hPa | - | - | - | - |
| 1777659359 | 22.78° C | 51% | 1022.7 hPa | - | - | - | - |
| 1777658458 | 22.78° C | 51% | 1022.6 hPa | - | - | - | - |
| 1777657558 | 22.78° C | 50% | 1022.3 hPa | - | - | - | - |
| 1777656657 | 22.78° C | 49% | 1022.1 hPa | - | - | - | - |
| 1777655756 | 23.33° C | 50% | 1022 hPa | - | - | - | - |
| 1777654855 | 23.33° C | 49% | 1021.8 hPa | - | - | - | - |
| 1777653979 | 22.78° C | 51% | 1021.8 hPa | - | - | - | - |
| 1777653078 | 22.78° C | 51% | 1021.7 hPa | - | - | - | - |
| 1777652177 | 22.78° C | 50% | 1021.5 hPa | - | - | - | - |
| 1777651277 | 22.78° C | 50% | 1021.6 hPa | - | - | - | - |
| 1777650376 | 22.78° C | 50% | 1021.6 hPa | - | - | - | - |
| 1777649475 | 22.78° C | 50% | 1021.6 hPa | - | - | - | - |
| 1777647673 | 22.78° C | 50% | 1021.5 hPa | - | - | - | - |
| 1777646772 | 22.78° C | 50% | 1021.5 hPa | - | - | - | - |
| 1777645871 | 23.33° C | 50% | 1021.6 hPa | - | - | - | - |
* Rain since midnight (hover to see other rain measurements)
** Current wind speed in m/s (hover to see current wind gust speed)